sat.trackr.live / text

‹ back to catalog

SWARM A

NORAD 39452 · 2013-067B

PAYLOAD ACTIVE UNKNOWN

§ Identity

Operator
Country
ESA
Launch date
2013-11-22
Launch site
PLMSC
Launch vehicle
Mass (kg)
RCS (m²)
2.24

Purposes: science

External: N2YO · Heavens-Above · Gunter

§ Orbital elements

Epoch: 2026-05-25T02:48:32.954112Z

Period
92.88 min
Inclination
87.3332°
Eccentricity
0.0003210
Mean motion
15.50419826 rev/d
Perigee alt
413.3 km
Apogee alt
417.7 km
Semi-major
6,793.6 km
B*
1.8355e-4
RAAN
64.8056°
Arg perigee
85.9036°
Mean anomaly
274.2591°
Rev number
70,267

§ Raw data

SWARM A1 39452U 13067B   26145.11704808  .00010476  00000+0  18355-3 0  99992 39452  87.3332  64.8056 0003210  85.9036 274.2591 15.50419826702670

JSON: /api/v1/satellites/39452 · /tle

For live sub-satellite position, see the globe view (requires WebGL).

§ Visibility from observer

Set your observer location to see the next 7 days of passes ≥ 10°. The values pass through the URL so the page stays shareable.

No JS? Fill the form by hand. The geolocation button needs JavaScript.

§ Radio — SatNOGS DB

ModeDescriptionDownlinkUplink
FM S-Band (2249MHz) 2.249 GHz

1 transmitter · refreshed weekly from db.satnogs.org